EN

Hourly Weather Acambaro

Today, 26 November, Thursday

Time Temperature Precipitation Wind Pressure Humidity
00:00 +15°C° 0 mm 1 mps 610 mmHg 60%
01:00 +15°C° 0 mm 1 mps 610 mmHg 60%
02:00 +14°C° 0 mm 1 mps 610 mmHg 59%
03:00 +14°C° 0 mm 1 mps 609 mmHg 59%
04:00 +14°C° 0 mm 1 mps 609 mmHg 58%
05:00 +13°C° 0 mm 1 mps 609 mmHg 54%
06:00 +16°C° 0 mm 1 mps 611 mmHg 48%
07:00 +19°C° 0 mm 1 mps 612 mmHg 43%
08:00 +21°C° 0 mm 1 mps 613 mmHg 37%
09:00 +23°C° 0 mm 0 mps 614 mmHg 32%
10:00 +26°C° 0 mm 0 mps 615 mmHg 27%
11:00 +29°C° 0 mm 0 mps 615 mmHg 22%
12:00 +29°C° 0 mm 0 mps 614 mmHg 21%
13:00 +31°C° 0 mm 1 mps 614 mmHg 20%
14:00 +31°C° 0 mm 1 mps 613 mmHg 20%
15:00 +28°C° 0 mm 1 mps 612 mmHg 25%
16:00 +25°C° 0 mm 1 mps 611 mmHg 31%
17:00 +23°C° 0 mm 1 mps 610 mmHg 36%
18:00 +21°C° 0 mm 1 mps 610 mmHg 43%
19:00 +20°C° 0 mm 1 mps 610 mmHg 50%
20:00 +18°C° 0 mm 1 mps 610 mmHg 57%
21:00 +18°C° 0 mm 1 mps 610 mmHg 59%
22:00 +16°C° 0 mm 1 mps 610 mmHg 62%
23:00 +16°C° 0 mm 1 mps 610 mmHg 64%

Tomorrow, 27 November, Friday

Time Temperature Precipitation Wind Pressure Humidity
00:00 +15°C° 0 mm 1 mps 609 mmHg 64%
01:00 +14°C° 0 mm 0 mps 609 mmHg 65%
02:00 +13°C° 0 mm 0 mps 609 mmHg 66%
03:00 +13°C° 0 mm 0 mps 609 mmHg 66%
04:00 +13°C° 0 mm 0 mps 609 mmHg 67%
05:00 +12°C° 0 mm 0 mps 609 mmHg 67%
06:00 +15°C° 0 mm 0 mps 610 mmHg 59%
07:00 +17°C° 0 mm 0 mps 611 mmHg 52%
08:00 +20°C° 0 mm 0 mps 612 mmHg 44%
09:00 +23°C° 0 mm 0 mps 613 mmHg 37%
10:00 +28°C° 0 mm 1 mps 614 mmHg 29%
11:00 +31°C° 0 mm 1 mps 615 mmHg 21%
12:00 +31°C° 0 mm 1 mps 614 mmHg 20%
13:00 +31°C° 0 mm 1 mps 613 mmHg 18%
14:00 +31°C° 0 mm 1 mps 612 mmHg 17%
15:00 +28°C° 0 mm 1 mps 611 mmHg 22%
16:00 +26°C° 0 mm 1 mps 610 mmHg 26%
17:00 +23°C° 0 mm 1 mps 609 mmHg 31%
18:00 +21°C° 0 mm 1 mps 609 mmHg 38%
19:00 +20°C° 0 mm 1 mps 609 mmHg 45%
20:00 +18°C° 0 mm 1 mps 609 mmHg 52%
21:00 +18°C° 0 mm 1 mps 609 mmHg 54%
22:00 +16°C° 0 mm 1 mps 609 mmHg 56%
23:00 +15°C° 0 mm 1 mps 609 mmHg 58%

Day after tomorrow, 28 November, Saturday

Time Temperature Precipitation Wind Pressure Humidity
00:00 +15°C° 0 mm 1 mps 609 mmHg 58%
01:00 +15°C° 0 mm 1 mps 608 mmHg 59%
02:00 +14°C° 0 mm 1 mps 608 mmHg 59%
03:00 +14°C° 0 mm 1 mps 608 mmHg 60%
04:00 +14°C° 0 mm 1 mps 608 mmHg 60%
05:00 +13°C° 0 mm 1 mps 608 mmHg 60%
06:00 +15°C° 0 mm 0 mps 609 mmHg 54%
07:00 +17°C° 0 mm 0 mps 611 mmHg 48%
08:00 +19°C° 0 mm 0 mps 612 mmHg 42%
09:00 +22°C° 0 mm 0 mps 612 mmHg 36%
10:00 +27°C° 0 mm 1 mps 613 mmHg 30%
11:00 +30°C° 0 mm 1 mps 614 mmHg 24%
12:00 +30°C° 0 mm 1 mps 613 mmHg 23%
13:00 +30°C° 0 mm 1 mps 612 mmHg 21%
14:00 +30°C° 0 mm 1 mps 612 mmHg 20%
15:00 +28°C° 0 mm 1 mps 611 mmHg 25%
16:00 +25°C° 0 mm 1 mps 610 mmHg 31%
17:00 +22°C° 0 mm 1 mps 609 mmHg 36%
18:00 +21°C° 0 mm 1 mps 609 mmHg 47%
19:00 +19°C° 0 mm 1 mps 609 mmHg 58%
20:00 +18°C° 0 mm 1 mps 609 mmHg 69%
21:00 +16°C° 0 mm 1 mps 609 mmHg 74%
22:00 +16°C° 0 mm 1 mps 609 mmHg 79%
23:00 +15°C° 0 mm 1 mps 609 mmHg 83%

29 November, Sunday

Time Temperature Precipitation Wind Pressure Humidity
00:00 +15°C° 0 mm 1 mps 609 mmHg 84%
01:00 +15°C° 0 mm 1 mps 608 mmHg 85%
02:00 +14°C° 0 mm 1 mps 608 mmHg 85%
03:00 +14°C° 0 mm 1 mps 608 mmHg 85%
04:00 +13°C° 0 mm 0 mps 608 mmHg 85%
05:00 +12°C° 0 mm 0 mps 608 mmHg 85%
06:00 +14°C° 0 mm 0 mps 610 mmHg 76%
07:00 +17°C° 0 mm 0 mps 611 mmHg 66%
08:00 +19°C° 0 mm 0 mps 612 mmHg 57%
09:00 +22°C° 0 mm 0 mps 613 mmHg 48%
10:00 +26°C° 0 mm 1 mps 613 mmHg 39%
11:00 +29°C° 0 mm 1 mps 614 mmHg 31%
12:00 +29°C° 0 mm 1 mps 613 mmHg 29%
13:00 +29°C° 0 mm 2 mps 612 mmHg 28%
14:00 +29°C° 0 mm 2 mps 612 mmHg 26%
15:00 +27°C° 0 mm 2 mps 611 mmHg 34%
16:00 +25°C° 0 mm 2 mps 611 mmHg 42%
17:00 +22°C° 0 mm 1 mps 610 mmHg 50%
18:00 +21°C° 0 mm 1 mps 610 mmHg 59%
19:00 +19°C° 0 mm 1 mps 610 mmHg 69%
20:00 +18°C° 0 mm 1 mps 610 mmHg 79%
21:00 +16°C° 0 mm 1 mps 611 mmHg 82%
22:00 +15°C° 0 mm 1 mps 611 mmHg 85%
23:00 +15°C° 0 mm 1 mps 611 mmHg 89%

30 November, Monday

Time Temperature Precipitation Wind Pressure Humidity
00:00 +14°C° 0 mm 1 mps 610 mmHg 90%
01:00 +14°C° 0 mm 1 mps 610 mmHg 92%
02:00 +13°C° 0 mm 1 mps 609 mmHg 94%
03:00 +13°C° 0 mm 1 mps 610 mmHg 94%
04:00 +12°C° 0 mm 1 mps 610 mmHg 94%
05:00 +12°C° 0 mm 1 mps 610 mmHg 95%
06:00 +14°C° 0 mm 1 mps 611 mmHg 86%
07:00 +16°C° 0 mm 1 mps 612 mmHg 78%
08:00 +18°C° 0 mm 1 mps 613 mmHg 69%
09:00 +21°C° 0 mm 1 mps 614 mmHg 61%
10:00 +22°C° 0 mm 0 mps 614 mmHg 52%
11:00 +25°C° 0 mm 0 mps 615 mmHg 43%
12:00 +27°C° 0 mm 1 mps 614 mmHg 42%
13:00 +27°C° 0 mm 1 mps 613 mmHg 41%
14:00 +26°C° 0 mm 2 mps 612 mmHg 40%
15:00 +24°C° 0.1 mm 2 mps 611 mmHg 48%
16:00 +22°C° 0.1 mm 1 mps 611 mmHg 56%
17:00 +20°C° 0.1 mm 1 mps 610 mmHg 64%
18:00 +19°C° 0 mm 1 mps 610 mmHg 69%
19:00 +16°C° 0 mm 1 mps 610 mmHg 73%
20:00 +15°C° 0 mm 1 mps 610 mmHg 78%
21:00 +14°C° 0 mm 1 mps 610 mmHg 80%
22:00 +14°C° 0 mm 1 mps 610 mmHg 83%
23:00 +13°C° 0 mm 1 mps 610 mmHg 85%

1 December, Tuesday

Time Temperature Precipitation Wind Pressure Humidity
00:00 +13°C° 0 mm 1 mps 610 mmHg 87%
01:00 +12°C° 0 mm 0 mps 609 mmHg 89%
02:00 +11°C° 0 mm 0 mps 609 mmHg 90%
03:00 +11°C° 0 mm 0 mps 608 mmHg 92%
04:00 +12°C° 0 mm 1 mps 608 mmHg 93%
05:00 +12°C° 0 mm 1 mps 608 mmHg 94%
06:00 +14°C° 0 mm 1 mps 609 mmHg 88%
07:00 +16°C° 0 mm 1 mps 610 mmHg 81%
08:00 +19°C° 0 mm 1 mps 611 mmHg 75%
09:00 +20°C° 0 mm 2 mps 611 mmHg 65%
10:00 +22°C° 0 mm 3 mps 611 mmHg 55%
11:00 +25°C° 0 mm 4 mps 612 mmHg 45%
12:00 +25°C° 0 mm 4 mps 611 mmHg 44%
13:00 +25°C° 0 mm 4 mps 610 mmHg 43%
14:00 +26°C° 0 mm 4 mps 609 mmHg 42%
15:00 +22°C° 0 mm 4 mps 609 mmHg 49%
16:00 +20°C° 0 mm 3 mps 608 mmHg 57%
17:00 +18°C° 0 mm 2 mps 608 mmHg 64%
18:00 +17°C° 0 mm 2 mps 608 mmHg 71%
19:00 +16°C° 0 mm 2 mps 608 mmHg 77%
20:00 +14°C° 0 mm 2 mps 608 mmHg 83%
21:00 +14°C° 0 mm 1 mps 608 mmHg 85%
22:00 +13°C° 0 mm 1 mps 608 mmHg 88%
23:00 +13°C° 0 mm 1 mps 608 mmHg 90%
Show more